Wind_Speed
66 70 72 71 73 75 75 75 73 71 66 59 57 53 50 55 54 50 33 29 36 36 34 35 50 54 56 63 62 62 73 86 90 93 91 89 87 85 86 84 82 83 83 83 82 82 80 80 77
70 70 73 72 71 73 74 73 72 64 57 48 47 43 40 33 34 27 29 48 47 27 40 37 39 46 37 50 61 63 73 77 86 89 91 90 89 87 87 86 86 86 85 85 85 85 84 83 81
69 67 72 71 73 75 72 67 61 53 50 46 40 30 27 32 31 36 42 56 53 49 58 42 33 46 40 37 39 43 43 59 77 84 86 89 89 87 87 88 90 88 87 87 87 87 85 84 84
63 64 64 66 72 72 67 59 55 42 41 33 23 34 33 22 38 34 67 70 44 62 41 33 33 35 40 41 50 42 45 36 48 71 82 83 85 89 87 87 90 89 89 87 86 86 85 85 83
59 60 64 67 70 71 62 54 43 31 23 16 38 45 31 32 35 31 47 50 54 66 30 35 14 39 35 35 42 53 48 46 44 49 62 77 79 79 82 85 88 87 85 85 83 83 85 83 80
52 56 58 62 64 59 53 34 18 10 17 15 43 41 33 38 32 34 47 38 51 55 32 36 24 22 38 42 43 45 44 41 37 45 46 48 66 75 76 78 78 79 81 79 80 78 76 77 74
51 49 52 55 55 53 43 18 16 19 32 29 35 41 32 32 29 41 46 35 48 51 45 44 42 44 30 29 35 45 34 34 35 35 38 47 50 61 65 63 70 74 71 69 70 70 65 61 63
43 41 47 48 44 40 27 14 28 30 33 34 32 30 18 38 39 43 48 45 49 60 55 52 42 27 27 37 34 40 41 42 33 30 36 37 44 45 49 55 56 58 62 55 54 57 55 52 48
37 39 43 43 38 29 11 14 21 20 11 12 26 29 27 30 47 50 55 57 52 66 64 58 46 36 27 36 38 52 44 44 42 29 31 26 30 34 31 35 42 50 44 39 39 42 42 46 45
34 38 37 41 32 18 7 12 17 19 14 15 25 34 42 39 42 47 51 59 69 60 74 63 47 46 64 49 49 46 50 47 35 30 25 18 23 26 27 30 33 35 40 37 37 39 47 48 45
32 39 40 36 30 5 6 17 11 8 5 21 34 37 42 48 53 48 58 57 57 65 65 80 69 63 58 57 58 54 38 34 27 29 33 33 23 26 31 37 40 39 43 41 40 46 41 53 54
38 46 44 36 18 6 13 20 15 10 13 22 29 27 39 44 58 55 54 50 58 65 68 72 68 67 68 71 55 56 43 36 38 35 35 27 30 32 34 41 43 42 44 45 48 50 50 47 46
35 44 51 40 12 9 25 20 13 7 12 19 21 31 33 43 49 55 53 58 58 67 73 74 69 58 68 69 66 54 52 51 45 41 46 39 38 41 43 40 42 45 45 47 48 45 45 51 53
34 41 48 44 25 21 8 22 18 9 8 18 16 19 27 32 36 35 51 55 65 67 75 72 72 63 64 66 64 63 61 62 50 47 46 47 46 49 46 45 44 44 44 47 48 50 49 52 52
32 40 43 46 38 21 8 5 4 7 15 9 4 7 6 11 19 33 46 64 69 64 68 69 76 59 63 61 62 54 57 57 52 52 51 53 47 50 52 49 45 47 47 51 53 53 53 53 55
30 38 41 45 42 28 16 6 9 6 10 8 4 11 8 9 7 27 43 66 66 61 58 68 69 72 67 62 57 53 56 54 57 63 60 55 49 52 54 51 52 53 51 51 53 53 54 55 56
32 37 43 41 43 39 23 17 17 9 9 7 7 11 8 12 9 16 34 65 65 63 63 63 63 65 58 56 56 57 59 60 55 54 52 52 55 54 54 55 61 61 56 54 57 59 61 63 67
32 36 40 44 38 39 35 17 26 19 6 13 11 13 4 6 10 19 27 47 70 72 67 64 64 73 69 64 58 61 62 54 55 48 54 53 56 58 60 60 58 55 54 60 59 58 63 67 70
33 35 36 44 41 40 39 28 16 19 10 15 14 16 13 12 13 12 14 24 46 75 68 59 68 72 73 70 68 62 64 64 60 57 55 54 48 51 53 54 54 58 55 56 59 63 62 64 63
34 34 37 39 44 46 38 37 16 20 25 16 23 25 12 15 6 8 17 19 21 36 48 57 66 75 71 68 62 61 59 52 50 57 63 54 57 55 53 57 55 56 60 63 66 69 72 78 78
32 37 37 39 41 41 45 35 24 14 18 24 30 27 22 20 18 15 11 13 10 16 25 29 36 44 47 48 41 38 40 40 37 35 40 51 59 57 51 54 61 59 58 65 67 70 74 75 78
29 36 35 36 39 38 46 34 28 20 12 26 36 31 32 30 29 24 23 19 16 16 18 20 22 22 27 28 31 33 35 36 37 43 43 45 46 51 53 54 55 58 57 63 67 69 76 82 85
26 35 35 39 34 35 41 36 33 26 17 12 26 33 23 27 30 28 30 32 29 28 28 31 37 35 32 35 35 44 45 46 47 53 52 56 60 63 63 65 62 66 66 69 74 78 83 84 83
27 33 33 37 31 29 39 46 33 31 23 15 13 41 37 28 33 35 34 35 34 34 32 32 31 36 38 44 42 45 38 50 58 62 58 63 64 65 69 73 73 77 79 76 78 83 84 78 76
36 33 32 36 32 33 36 40 33 35 32 19 19 18 29 43 39 41 38 34 37 37 36 41 40 40 41 45 48 49 50 51 51 50 54 58 60 66 69 70 74 73 73 75 74 73 73 73 74
38 35 33 35 34 33 38 41 42 33 34 29 19 18 22 26 32 42 41 43 39 38 44 40 44 48 51 49 51 55 58 58 63 63 62 61 63 64 65 69 68 69 70 72 70 70 70 72 75
38 41 41 38 36 32 39 41 38 35 33 35 26 17 18 24 30 24 41 38 44 41 40 40 36 35 37 39 42 45 46 50 52 56 58 60 60 62 63 63 65 66 68 70 70 70 71 74 78
39 46 42 34 32 33 39 38 37 39 36 30 30 27 25 18 18 25 24 31 41 45 44 42 45 45 42 44 50 48 48 54 59 57 56 58 61 61 60 61 65 67 67 66 68 70 73 78 82
47 47 47 39 32 32 40 41 31 31 38 39 32 32 29 27 21 21 22 24 28 33 31 29 30 30 25 36 42 45 42 45 45 53 55 55 56 57 62 64 66 67 71 72 73 75 79 82 87
51 49 51 46 37 37 36 40 28 32 34 47 41 33 28 29 27 26 24 25 28 39 39 40 44 37 35 39 45 44 39 37 33 44 49 59 62 63 61 63 65 68 71 75 80 82 86 86 86
Wind_Direction
288 289 292 297 298 298 295 292 292 294 292 285 276 272 269 263 261 258 237 207 181 168 177 254 269 262 261 259 252 258 251 249 248 249 249 249 252 255 255 257 258 260 261 262 264 266 268 269 271
294 295 298 298 300 300 297 297 300 299 292 283 270 266 263 260 240 215 190 172 166 181 165 181 249 252 259 256 261 264 255 248 248 249 251 252 251 253 256 257 258 259 261 263 265 266 267 270 273
296 299 300 299 299 298 298 301 301 297 286 277 264 236 197 178 174 161 169 168 160 158 172 188 214 243 270 260 265 261 262 254 249 248 249 251 253 255 257 258 259 262 262 263 265 267 270 272 274
300 301 300 301 300 302 307 308 302 290 278 274 232 174 182 173 167 173 165 162 189 168 187 209 259 265 280 273 260 248 262 268 263 253 250 251 253 254 255 258 259 260 263 265 267 269 270 273 275
302 305 305 306 304 307 312 309 300 292 267 221 170 178 170 180 173 190 174 174 173 201 213 191 200 266 272 262 270 273 259 273 263 262 253 250 252 255 256 258 261 262 264 265 267 269 272 276 276
311 309 307 305 305 308 311 307 286 256 123 170 174 182 178 183 178 196 184 193 191 196 187 153 187 274 253 277 283 275 276 281 274 269 262 260 255 256 255 258 261 262 265 267 268 271 274 275 277
310 312 311 309 314 310 313 283 201 179 145 152 174 191 200 190 184 194 187 193 182 184 173 168 183 209 250 248 263 255 262 266 270 264 260 257 257 258 255 261 263 263 269 271 269 272 272 273 278
319 318 315 318 318 309 305 201 169 174 170 149 146 163 188 215 205 190 195 192 191 187 184 183 192 205 261 263 245 248 252 264 269 267 260 260 265 264 261 262 266 266 267 269 270 270 269 270 273
322 331 325 322 327 300 272 204 157 146 126 189 197 214 225 220 210 203 202 204 195 192 199 201 202 229 200 199 232 242 243 264 259 262 252 255 259 262 264 261 261 264 258 259 263 266 267 267 270
338 333 331 329 336 298 250 182 169 160 163 239 246 232 228 221 213 214 201 208 215 208 200 207 204 199 198 208 219 238 251 255 239 247 248 256 256 250 244 240 242 246 250 250 247 260 265 266 273
346 351 342 343 351 306 142 146 136 70 245 276 287 250 232 229 219 216 210 210 210 208 206 209 209 203 202 212 224 239 237 238 238 244 249 261 251 233 231 231 234 232 244 249 252 263 269 273 280
14 8 356 358 8 85 134 138 127 73 256 284 282 255 235 236 219 222 222 211 205 205 207 204 196 211 215 221 222 229 232 242 250 250 245 244 243 236 239 234 235 239 247 261 266 267 275 282 284
6 8 4 4 354 43 106 129 134 141 262 317 285 266 250 226 231 223 226 226 214 196 198 192 195 212 218 224 228 230 236 242 251 250 252 247 243 240 248 250 257 260 263 263 266 270 274 282 280
3 12 11 6 360 334 147 140 169 226 312 310 307 268 262 246 231 235 214 212 205 198 197 199 200 212 215 217 224 232 239 244 250 253 251 256 250 245 251 256 261 260 266 270 264 271 274 275 278
352 7 9 12 4 334 282 174 152 191 324 309 314 279 226 234 237 216 208 201 197 198 202 205 207 217 223 225 231 237 243 240 244 251 252 261 258 254 261 256 254 264 269 262 265 272 273 275 277
347 358 7 12 7 5 289 238 220 258 287 227 148 213 215 178 160 206 208 196 199 199 205 209 215 223 227 232 238 243 247 251 253 257 260 259 257 254 258 256 261 268 271 270 267 273 279 278 276
344 351 359 6 7 4 353 272 254 282 264 244 142 208 216 209 170 187 207 202 206 208 209 218 223 225 227 233 240 244 247 250 251 257 259 252 256 257 260 261 258 263 267 268 274 275 278 275 277
335 345 351 358 9 7 359 320 272 283 263 154 147 156 183 167 198 197 202 208 212 218 221 227 230 229 233 238 241 240 245 245 245 252 254 254 252 257 261 264 263 267 277 275 274 272 273 274 281
329 331 340 348 7 11 6 350 307 244 249 213 190 167 178 201 146 158 186 209 216 220 224 228 229 231 235 246 246 249 249 247 249 245 247 248 255 259 263 265 266 264 266 264 270 273 274 277 284
326 320 332 344 355 3 4 3 322 272 245 230 205 185 182 182 188 183 186 189 200 215 220 227 232 235 242 247 251 251 250 248 249 251 248 252 255 261 264 262 265 271 270 266 271 270 274 274 280
312 321 323 337 353 6 4 3 352 306 261 226 209 209 196 210 179 205 226 191 194 203 207 217 227 233 237 241 246 249 247 250 248 250 258 255 258 259 258 259 266 264 265 267 268 270 280 285 287
309 311 324 333 344 350 357 1 0 343 274 228 217 219 217 206 222 210 213 215 219 203 220 218 233 246 236 239 247 248 242 244 242 244 245 243 247 249 257 261 265 264 271 275 276 281 282 283 286
302 304 323 331 341 343 353 358 360 3 326 293 237 220 236 226 223 240 228 210 208 209 211 223 229 227 223 225 227 236 239 236 237 249 264 259 262 266 271 274 274 273 275 279 281 281 285 284 287
286 301 315 321 329 337 346 351 353 3 1 307 280 222 217 232 243 239 233 236 223 224 230 233 240 234 239 243 250 247 263 244 248 252 262 260 261 266 269 274 275 272 273 278 281 283 286 289 290
278 296 302 310 318 322 332 343 351 0 357 349 292 281 237 231 240 246 241 232 253 228 229 236 248 253 255 260 263 265 273 269 273 273 270 274 276 278 276 280 284 284 284 282 282 287 290 292 292
278 286 293 306 315 314 318 331 349 355 352 346 333 277 268 258 240 241 248 254 246 246 250 249 249 246 249 248 257 265 267 270 273 274 275 273 275 276 282 281 282 282 285 286 286 287 289 293 295
268 278 285 297 307 310 311 321 343 350 351 350 344 332 279 266 266 260 237 249 254 242 241 247 252 262 267 266 260 266 272 277 277 278 279 276 275 276 279 282 284 285 286 286 287 292 294 295 293
266 274 284 287 306 302 305 320 332 341 339 347 344 333 327 295 268 265 262 237 244 250 253 258 265 268 282 283 280 278 277 281 284 281 279 277 279 281 282 285 285 285 286 286 284 283 284 286 287
261 267 273 279 298 300 300 312 325 328 327 335 343 338 322 312 292 263 255 255 225 223 242 258 258 253 260 284 277 279 279 283 286 281 278 274 276 279 279 281 280 279 278 278 279 280 282 284 285
258 261 267 271 281 290 295 301 321 315 319 329 330 339 322 315 314 297 267 251 241 237 241 246 251 255 249 257 268 275 280 291 282 264 275 278 280 282 281 281 281 278 276 277 277 278 279 285 287
Height
10759 10755 10751 10745 10740 10735 10729 10719 10717 10715 10712 10712 10707 10706 10707 10708 10714 10718 10730 10744 10759 10761 10776 10777 10772 10772 10773 10770 10778 10781 10782 10790 10797 10801 10807 10811 10816 10821 10821 10823 10825 10825 10826 10828 10830 10831 10833 10833 10836
10747 10742 10738 10732 10724 10720 10710 10704 10699 10699 10691 10692 10686 10690 10692 10699 10700 10709 10720 10727 10749 10754 10759 10761 10751 10758 10759 10765 10770 10768 10770 10775 10782 10790 10796 10801 10805 10808 10811 10812 10813 10814 10817 10818 10819 10819 10821 10822 10825
10737 10732 10725 10718 10712 10702 10697 10694 10686 10681 10671 10669 10670 10676 10681 10689 10694 10699 10709 10721 10733 10746 10750 10748 10748 10749 10757 10760 10761 10760 10760 10764 10768 10773 10782 10788 10793 10798 10800 10801 10802 10805 10807 10808 10808 10809 10811 10812 10813
10728 10722 10716 10708 10696 10686 10683 10679 10671 10662 10655 10660 10663 10672 10672 10679 10689 10698 10698 10703 10735 10743 10749 10753 10760 10754 10751 10749 10751 10749 10752 10758 10758 10764 10771 10775 10780 10784 10787 10788 10790 10794 10796 10798 10799 10800 10801 10801 10803
10718 10710 10700 10696 10683 10671 10670 10665 10652 10651 10648 10653 10651 10659 10660 10665 10677 10689 10705 10700 10715 10729 10738 10750 10762 10757 10746 10744 10741 10738 10746 10748 10751 10754 10758 10763 10767 10772 10774 10776 10779 10783 10785 10786 10789 10789 10790 10790 10790
10708 10701 10692 10685 10675 10665 10662 10655 10648 10648 10649 10649 10653 10654 10655 10666 10673 10683 10694 10696 10708 10726 10734 10741 10753 10761 10742 10739 10735 10728 10739 10740 10742 10746 10750 10751 10752 10756 10760 10763 10768 10772 10773 10778 10778 10778 10779 10776 10778
10702 10691 10683 10678 10665 10651 10652 10646 10639 10643 10644 10641 10643 10652 10657 10667 10674 10677 10689 10691 10709 10720 10723 10729 10737 10745 10741 10742 10734 10728 10732 10734 10736 10740 10741 10740 10743 10747 10748 10752 10757 10760 10764 10765 10766 10768 10767 10765 10766
10694 10684 10676 10668 10657 10643 10640 10640 10633 10633 10636 10641 10641 10643 10649 10654 10666 10671 10679 10692 10698 10709 10714 10719 10725 10730 10736 10733 10730 10725 10723 10726 10730 10731 10732 10733 10739 10740 10741 10744 10749 10752 10754 10756 10755 10755 10756 10756 10756
10688 10678 10670 10660 10652 10636 10633 10635 10631 10634 10639 10640 10642 10644 10645 10648 10658 10664 10669 10681 10688 10696 10703 10711 10720 10723 10730 10723 10722 10714 10715 10719 10722 10726 10726 10728 10728 10732 10735 10738 10740 10742 10744 10745 10746 10744 10744 10744 10746
10682 10676 10667 10655 10646 10632 10630 10630 10633 10633 10633 10633 10634 10638 10639 10642 10651 10660 10668 10669 10676 10683 10688 10698 10710 10711 10714 10713 10706 10704 10710 10713 10720 10722 10722 10722 10724 10727 10729 10732 10734 10734 10734 10735 10734 10733 10733 10734 10737
10681 10672 10663 10650 10639 10631 10630 10631 10629 10627 10627 10629 10627 10626 10629 10632 10641 10647 10659 10663 10668 10675 10675 10685 10696 10701 10702 10702 10699 10698 10706 10713 10715 10717 10717 10718 10721 10720 10722 10723 10724 10723 10725 10724 10726 10725 10725 10723 10727
10678 10668 10661 10649 10639 10630 10627 10630 10629 10630 10631 10627 10623 10626 10630 10628 10637 10642 10649 10656 10659 10668 10671 10674 10685 10690 10690 10688 10689 10696 10704 10709 10710 10713 10711 10713 10714 10716 10716 10715 10714 10714 10717 10718 10719 10718 10718 10718 10718
10673 10665 10658 10649 10642 10634 10626 10629 10629 10625 10624 10622 10620 10620 10622 10624 10629 10632 10635 10645 10652 10659 10663 10666 10675 10680 10682 10684 10693 10695 10702 10704 10705 10704 10705 10706 10706 10708 10709 10710 10711 10713 10712 10713 10713 10712 10712 10710 10709
10671 10663 10658 10650 10642 10636 10628 10620 10620 10621 10623 10621 10619 10616 10614 10616 10620 10623 10624 10635 10645 10654 10659 10663 10669 10674 10679 10685 10689 10693 10698 10697 10698 10696 10698 10700 10702 10700 10702 10704 10706 10707 10706 10706 10705 10706 10703 10701 10698
10668 10662 10657 10652 10644 10636 10632 10626 10622 10621 10622 10619 10618 10616 10613 10611 10610 10611 10622 10630 10638 10648 10654 10660 10667 10672 10679 10683 10686 10688 10691 10690 10688 10686 10689 10693 10695 10696 10697 10697 10698 10699 10699 10699 10698 10696 10693 10692 10691
10665 10658 10653 10649 10645 10637 10631 10624 10620 10621 10620 10619 10617 10617 10613 10611 10609 10611 10618 10628 10637 10643 10648 10656 10663 10668 10674 10675 10677 10680 10683 10681 10683 10680 10685 10686 10688 10689 10689 10690 10690 10690 10690 10690 10688 10686 10684 10682 10681
10661 10657 10650 10647 10644 10636 10630 10626 10622 10619 10617 10617 10613 10615 10612 10610 10610 10613 10618 10627 10634 10639 10646 10652 10657 10661 10666 10667 10671 10675 10674 10674 10673 10674 10678 10679 10680 10681 10681 10682 10681 10681 10680 10680 10679 10677 10675 10672 10670
10657 10652 10647 10645 10639 10635 10629 10624 10618 10616 10614 10615 10615 10615 10614 10611 10610 10612 10616 10623 10631 10635 10641 10647 10651 10653 10654 10656 10659 10664 10665 10666 10668 10669 10669 10670 10671 10670 10671 10672 10672 10672 10670 10669 10667 10665 10663 10661 10659
10653 10651 10647 10641 10636 10632 10630 10619 10613 10614 10615 10615 10615 10614 10614 10614 10614 10613 10615 10620 10626 10632 10637 10641 10645 10646 10646 10647 10651 10655 10658 10661 10660 10662 10662 10661 10662 10663 10662 10661 10662 10661 10662 10659 10659 10656 10653 10645 10643
10650 10647 10643 10640 10636 10628 10626 10620 10613 10609 10612 10613 10614 10614 10613 10615 10616 10618 10619 10620 10622 10626 10631 10635 10637 10640 10641 10644 10646 10648 10649 10650 10651 10652 10652 10651 10652 10653 10653 10650 10652 10652 10651 10650 10647 10642 10640 10636 10630
10644 10642 10638 10633 10629 10625 10622 10621 10613 10610 10606 10609 10611 10611 10611 10613 10613 10616 10618 10621 10623 10626 10628 10630 10633 10636 10639 10641 10642 10643 10644 10645 10646 10646 10646 10644 10644 10643 10642 10642 10643 10642 10639 10637 10635 10631 10625 10621 10614
10638 10636 10633 10629 10624 10621 10620 10617 10614 10609 10607 10605 10607 10607 10608 10610 10610 10612 10615 10619 10623 10624 10628 10631 10632 10633 10636 10637 10638 10639 10638 10639 10640 10641 10641 10639 10637 10635 10632 10632 10631 10631 10630 10625 10622 10617 10611 10606 10602
10633 10630 10628 10625 10621 10618 10615 10612 10609 10606 10604 10603 10604 10606 10604 10606 10607 10609 10611 10614 10616 10618 10622 10625 10630 10632 10633 10632 10631 10631 10633 10634 10632 10630 10629 10628 10625 10623 10620 10618 10619 10617 10616 10614 10607 10600 10596 10592 10589
10627 10624 10623 10622 10619 10616 10612 10610 10604 10602 10602 10597 10598 10601 10605 10603 10603 10604 10607 10608 10611 10614 10616 10620 10624 10625 10625 10625 10624 10624 10624 10623 10624 10624 10622 10620 10618 10616 10612 10603 10606 10607 10602 10598 10594 10587 10583 10576 10569
10620 10618 10618 10617 10615 10613 10611 10609 10604 10597 10594 10597 10589 10591 10595 10601 10600 10599 10602 10607 10608 10610 10613 10613 10612 10614 10616 10617 10618 10618 10617 10615 10615 10615 10613 10607 10604 10601 10599 10596 10591 10590 10589 10585 10580 10574 10568 10560 10554
10613 10611 10611 10610 10610 10607 10605 10604 10601 10597 10593 10592 10591 10589 10586 10588 10594 10596 10597 10598 10601 10602 10602 10604 10605 10605 10603 10607 10607 10608 10609 10610 10607 10604 10602 10600 10595 10592 10586 10584 10580 10576 10573 10569 10564 10559 10554 10547 10539
10603 10601 10603 10604 10604 10601 10598 10596 10593 10593 10592 10586 10586 10586 10585 10581 10581 10587 10594 10591 10589 10592 10595 10597 10598 10601 10600 10597 10599 10599 10601 10599 10600 10596 10590 10587 10585 10581 10577 10571 10566 10562 10558 10553 10548 10542 10536 10530 10525
10594 10590 10597 10599 10596 10595 10592 10591 10589 10588 10588 10589 10585 10579 10575 10577 10578 10576 10579 10581 10582 10584 10586 10589 10591 10593 10592 10587 10586 10588 10589 10591 10588 10582 10577 10572 10569 10567 10562 10557 10552 10547 10542 10538 10534 10529 10525 10518 10511
10581 10583 10586 10591 10589 10590 10586 10585 10586 10584 10582 10584 10581 10576 10572 10568 10569 10570 10568 10566 10572 10576 10575 10577 10582 10581 10583 10576 10576 10578 10579 10579 10577 10568 10563 10559 10558 10555 10551 10546 10541 10536 10531 10526 10520 10516 10510 10504 10496
10571 10574 10574 10581 10583 10586 10582 10578 10582 10579 10577 10573 10571 10574 10570 10564 10560 10561 10563 10561 10561 10566 10569 10568 10570 10573 10576 10575 10570 10574 10574 10571 10568 10552 10545 10543 10541 10540 10536 10533 10529 10524 10518 10513 10507 10502 10497 10488 10479